www.pogodaiklimat.ru

Погода и климат >> Архив погоды >> Алжир >> Адрар


ПОГОДА в Адраре

  • Прогноз погоды в Адраре
  • Монитор погоды в Адраре

АРХИВ ПОГОДЫ в Адраре

Время (UTC), дата Ветер
(напр.,м/с)
 
Видим.   Явления Облачность Т
(С)
Тd
(С)
f
(%)
Тe
(С)
Тes
(С)
Комфортность P
(гПа)
Po
(гПа)
Тmin
(С)
Tmax
(С)
R
(мм)
R24
(мм)
S
(см)
12 15.05 В 6 10 км 3/0
[Ci sp]
+34.2 +29 +37 жарко 1010.7 979.4
15 15.05 ЮЗ 3 10 км ясно +36.3 +31 +42 жарко 1008.8 977.8
18 15.05 ЮЗ 3 10 км ясно +36.4 +31 +32 жарко 1007.9 976.9 +37.2
21 15.05 В 3 10 км ясно +30.8 +26 +26 жарко 1008.6 977.0
00 16.05 В 5 10 км ясно +26.8 -7.0 10 +24 +24 комфорт 1008.0 976.0
03 16.05 В 5 10 км ясно +24.3 -5.0 14 +22 +22 комфорт 1007.0 974.8
06 16.05 ЮВ 7 10 км ясно +22.4 -3.6 17 +21 +21 комфорт 1007.7 975.3 +22.2
09 16.05 ЮВ 10 10 км ясно +34.2 +29 +30 жарко 1008.5 977.3
12 16.05 Ю 7 8000 м ясно +40.2 +35 +42 очень
жарко
1007.5 976.9
15 16.05 Ю 6 8000 м 3/3 1500 м
[Cu med, cong]
+42.3 +37 +41 очень
жарко
1005.4 975.0
18 16.05 Ю 3 8000 м 3/3 1500 м
[Cu med, cong]
+41.0 +36 +36 очень
жарко
1004.6 974.1 +42.5
21 16.05 ЮВ 3 8000 м 3/3 1500 м
[Cu med, cong]
+34.6 +29 +29 жарко 1005.0 973.9
00 17.05 В 4 8000 м 3/3 1500 м
[Cu med, cong]
+28.6 -6.8 9 +25 +25 комфорт 1005.4 973.7
03 17.05 ЮВ 5 8000 м 3/3 1500 м
[Cu med, cong]
+26.4 -6.2 11 +24 +24 комфорт 1002.9 971.0
06 17.05 ЮВ 4 8000 м 3/3 1500 м
[Cu med, cong]
+25.0 -4.9 13 +23 +23 комфорт 1003.7 971.7 +24.5
09 17.05 ЮВ 6 7000 м 3/3 1500 м
[Cu med, cong]
+36.3 +31 +35 жарко 1003.9 973.0
12 17.05 З 7 7000 м ясно +43.3 +3.6 9 +40 +46 очень
жарко
1003.6 973.4
15 17.05 ЮЗ 8 7000 м 3/3 1500 м
[Cu med, cong]
+44.5 +4.5 9 +41 +43 опасность
перегрева
1001.6 971.6
18 17.05 З 11 5000 м пыльный позёмок 4/4 1500 м
[Cu med, cong]
+42.7 +3.2 9 +39 +39 очень
жарко
1000.3 970.1 +44.8
21 17.05 СЗ 6 5000 м 3/3 1500 м
[Cu med, cong]
+36.5 -1.4 9 +33 +33 жарко 1002.0 971.2
00 18.05 СЗ 2 10 км ясно +31.4 -5.2 9 +28 +28 жарко 1001.9 970.6
03 18.05 СЗ 5 10 км ясно +27.7 -8.0 9 +24 +24 комфорт 1001.6 969.9
06 18.05 С 7 5000 м ясно +25.5 -5.1 13 +23 +23 комфорт 1003.2 971.2 +24.8
09 18.05 СВ 10 4000 м пыльный позёмок 4/0
[Ci sp]
+34.3 -0.2 11 +31 +31 жарко 1005.2 974.1
12 18.05 СВ 4 7000 м 4/0
[Ci sp]
+40.0 +35 +48 очень
жарко
1003.9 973.4
15 18.05 С 5 9000 м 8/3 1500 м
[Cu med, cong Ac trans Ci sp]
+40.3 +35 +38 очень
жарко
1003.3 972.8
18 18.05 С 3 10 км 4/0
[Ci sp]
+39.5 +34 +35 очень
жарко
1003.0 972.4 +41.6
21 18.05 С 5 10 км 4/0
[Ci sp]
+33.0 +28 +28 жарко 1005.0 973.7
00 19.05 В 8 10 км 4/0
[Ci sp]
+30.8 +26 +26 жарко 1004.0 972.6
03 19.05 В 8 10 км 8/3 1500 м
[Cu med, cong Ac trans Ci sp]
+29.6 +25 +25 комфорт 1002.4 970.9
06 19.05 ЮЗ 7 8000 м 5/0
[Ac trans Ci sp]
+28.5 +24 +24 комфорт 1004.0 972.3 +26.6
09 19.05 ЮЗ 8 7000 м 9/1 1380 м
[Cu med, cong Ac trans Ci sp]
+32.0 +27 +28 жарко 1005.7 974.3
12 19.05 З 5 7000 м 9/3 1380 м
[Cu med, cong Ac trans Ci sp]
+39.0 +34 +38 очень
жарко
1003.4 972.8
15 19.05 ЮЗ 8 8000 м 8/1 1500 м
[Cu med, cong Ac trans Ci sp]
+39.6 +35 +36 очень
жарко
1001.8 971.3
18 19.05 ЮЗ 6 8000 м 9/4 1380 м
[Cu med, cong Ac trans Ci sp]
+38.0 +33 +33 жарко 1000.5 969.9 +40.2
21 19.05 Ю 7 10 км 5/0
[Ac trans Ci sp]
+35.6 +0.4 11 +32 +32 жарко 1001.7 970.8
00 20.05 ЮЗ 7 4000 м пыль 8/0
[Ac trans Ci sp]
+34.0 +2.2 13 +31 +31 жарко 1003.3 972.2
03 20.05 ЮЗ 9 5000 м пыльный позёмок 8/0
[Ac trans Ci sp]
+32.0 +6.8 21 +30 +30 жарко 1002.6 971.3
06 20.05 СЗ 3 4000 м пыль 8/4 1380 м
[Cu med, cong Ci sp]
+28.0 +5.1 23 +27 +27 жарко 1007.1 975.3 +27.4
09 20.05 ЮЗ 7 3000 м пыль 9/4 1000 м
[Cu med, cong Ac trans Ci sp]
+31.0 +3.0 17 +29 +30 жарко 1007.5 976.0
12 20.05 СЗ 7 4000 м пыль 10/8 1380 м
[Cu med, cong Ac trans]
+30.4 +2.7 17 +28 +29 жарко 1007.5 975.9
15 20.05 ЮЗ 5 5000 м пыль 8/4 1000 м
[Cu med, cong Ac trans Ci sp]
+32.6 +5.3 18 +30 +33 жарко 1006.2 974.9
18 20.05 Ю 13 1400 м пыльный позёмок 8/4 1380 м
[Cu med, cong Ac trans Ci sp]
+32.0 +3.8 17 +30 +30 жарко 1006.3 974.9 +33.4
21 20.05 Ю 13 3000 м пыльный позёмок 8/5 1380 м
[Cu med, cong Ac trans]
+27.0 +5.7 26 +26 +26 жарко 1008.6 976.6
00 21.05 ЮВ 12 6000 м пыльный позёмок 4/1 1500 м
[Cu med, cong Ac trans]
+25.3 +9.4 37 +26 +26 жарко 1007.9 975.8
03 21.05 ЮВ 7 7000 м 4/1 1500 м
[Cu med, cong Ac trans]
+22.4 +11.2 49 +25 +25 комфорт 1007.1 974.7
06 21.05 В 4 3000 м пыль 3/0
[Ac trans]
+21.7 +12.3 55 +24 +24 комфорт 1008.5 976.0 +21.2
09 21.05 ЮВ 9 1000 м пыль 4/1 1500 м
[Cu med, cong Ac trans]
+27.4 +14.6 45 +30 +31 жарко 1009.2 977.2
12 21.05 ЮВ 3 4000 м пыль 3/0
[Ac trans]
+32.3 +13.5 32 +33 +48 жарко 1008.5 977.1
15 21.05 С 2 7000 м 3/0
[Ac trans]
+34.8 +12.2 26 +35 +45 очень
жарко
1006.4 975.3
18 21.05 СВ 2 8000 м 3/0
[Ac trans]
+34.1 +12.0 26 +34 +35 очень
жарко
1006.1 974.9 +35.5
21 21.05 СЗ 3 8000 м 3/0
[Ac trans]
+30.6 +10.9 30 +31 +31 жарко 1008.3 976.7
00 22.05 СВ 3 8000 м 3/0
[Ac trans]
+28.0 +1.9 19 +26 +26 жарко 1008.2 976.3
03 22.05 В 6 10 км ясно +25.4 +9.3 36 +26 +26 жарко 1007.7 975.6
06 22.05 В 4 10 км ясно +23.0 +9.2 41 +24 +25 комфорт 1009.1 976.7 +22.4
09 22.05 ЮВ 3 8000 м ясно +30.2 +10.7 30 +30 +42 жарко 1010.5 978.8

 

Местоположение метеостанции Адрар (Алжир): широта 27.88 долгота -0.18 высота над уровнем моря 283 м.

В архиве по умолчанию представлена погода в Адраре за последнюю неделю. Архивные данные за месяц целиком и за предыдущие месяцы, начиная с января 2011 года, Вы можете получить, выбрав интересующий диапазон дат из раскрывающегося списка и нажав кнопку "Ввод!".


*Определитесь, кто Вы:
робот инопланетянин человек

Внимание! Время в таблицах - всемирное. Для получения местного времени необходимо прибавить поправку, которая равна 1 ч.

Смотрите также архив погоды в соседних городах и на ближайших метеорологических станциях:

Погода в Тимимуне (Алжир) (159 км)
Погода в Ин-Салах (Алжир) (274 км)
Погода в Бени-Аббесе (Алжир) (316 км)
Погода в Эль-Голеа (Алжир) (421 км)
Погода в Бешаре (Алжир) (450 км)
Погода в Араке (Алжир) (490 км)
Погода в Abankor (Алжир) (520 км)
Погода в Айн-Сефра (Алжир) (545 км)
Погода в Ин-Зиза (Алжир) (561 км)
Погода в Moulay Lachen (Алжир) (594 км)

Пояснения к столбцам:

Ветер - указаны скорость ветра в м/с - средняя за 10 мин, порывы в срок и между сроками (в фигурных скобках) и направление, откуда дует ветер: С - северный, СВ - северо-восточный, В - восточный, ЮВ - юго-восточный, Ю - южный, ЮЗ - юго-западный, З - западный, СЗ - северо-западный.
Видимость - горизонтальная дальность видимости в метрах или километрах. При видимости от 1 до 10 км при отсутствии осадков обычно наблюдается дымка, при ухудшении видимости до 1 км и менее - туман. В сухую погоду видимость может ухудшаться дымом, пылью или мглою.
Явления - указаны атмосферные явления, наблюдавшиеся в срок или в последний час перед сроком; фигурными скобками обозначены явления, наблюдавшиеся между сроками (за 1-3 часа до срока); квадратными скобками обозначены град или гололедные отложения с указанием их диаметра в мм.
Облачность - указаны через наклонную черту общая и нижняя облачность в баллах и высота нижней границы облаков в метрах; квадратными скобками обозначены формы облаков: Ci - перистые, Cs - перисто-слоистые, Cc - перисто-кучевые, Ac - высококучевые, As - высокослоистые, Sc - слоисто-кучевые, Ns - слоисто-дождевые, Cu - кучевые, Cb - кучево-дождевые. Подробнее классификацию облаков см. в Атласе облаков (PDF).
T - Температура воздуха - температура, измеренная на высоте 2 м над землей.
Td - Температура точки росы - температура, при понижении до которой содержащийся в воздухе водяной пар достигнет насыщения.
f - Относительная влажность воздуха - влажноcть воздуха, измеренная на высоте 2 м над землей.
Te - Эффективная температура - температура, которую ощущает одетый по сезону человек в тени. Характеристика душности погоды. При расчете учитывается влияние влажности воздуха и скорости ветра на теплоощущения человека.
Tes - Эффективная температура на солнце - температура, которую ощущает человек, с поправкой на солнечный нагрев. Характеристика знойности погоды. Зависит от высоты солнца над горизонтом, облачности и скорости ветра. Ночью, в пасмурную погоду, а также при ветре 12 м/с и более поправка равна нулю.
P - Атмосферное давление - приведенное к уровню моря атмосферное давление.
Po - Атмосферное давление - измеренное на уровне метеостанции атмосферное давление.
Tmin - Минимальная температура - минимум температуры воздуха на высоте 2 м над землей.
Tmax - Максимальная температура - максимум температуры воздуха на высоте 2 м над землей.
R - Количество осадков - Количество выпавших осадков за период времени, мм. При наведении курсора мыши на число - период времени, за который выпало указанное количество осадков.
R24 - Количество осадков - Количество выпавших осадков за 24 часа, мм.
S - Снежный покров - Высота снежного покрова, см. При наведении курсора мыши на число - состояние снежного покрова и степень покрытия местности в баллах.